[Iaude] MPEC F157: 2019 FS1 [a=1.29,e=0.18,i=29.0,H=25.8]

mpec at mpcdb1.cfa.harvard.edu mpec at mpcdb1.cfa.harvard.edu
Sun Mar 31 19:49:17 EDT 2019


M.P.E.C. 2019-F157                               Issued 2019 Mar. 31, 23:45 UT
 
     The Minor Planet Electronic Circulars contain information on unusual
         minor planets and routine data on comets.  They are published
    on behalf of Division F of the International Astronomical Union by the
          Minor Planet Center, Smithsonian Astrophysical Observatory,
                          Cambridge, MA 02138, U.S.A.

             Prepared using the Tamkin Foundation Computer Network

                              MPC at CFA.HARVARD.EDU
            URL https://www.minorplanetcenter.net/    ISSN 1523-6714


                                   2019 FS1
 
Observations:
     K19F01S* C2019 03 29.29880 12 45 42.53 -03 43 21.0          20.1 GVEF157G96
     K19F01S  C2019 03 29.30391 12 45 37.47 -03 45 16.1          21.2 GVEF157G96
     K19F01S  C2019 03 29.30902 12 45 32.26 -03 47 15.2          20.5 GVEF157G96
     K19F01S  C2019 03 29.31413 12 45 27.28 -03 49 09.4          20.5 GVEF157G96
     K19F01S  C2019 03 29.33164912 45 09.27 -03 55 53.6          20.6 GVEF157H01
     K19F01S  C2019 03 29.33521812 45 05.71 -03 57 15.0          20.2 GVEF157H01
     K19F01S  C2019 03 29.34647612 44 54.47 -04 01 32.0          20.5 GVEF157H01
     K19F01S  C2019 03 29.35201612 44 48.93 -04 03 38.7          20.4 GVEF157H01
     K19F01S  C2019 03 29.36780 12 44 33.56 -04 09 36.5          20.1 GVEF157I52
     K19F01S  C2019 03 29.36877 12 44 32.61 -04 09 58.4          20.6 GVEF157I52
     K19F01S  C2019 03 29.36974 12 44 31.64 -04 10 20.5          20.1 GVEF157I52
     K19F01S  C2019 03 29.37071 12 44 30.63 -04 10 42.9          20.2 GVEF157I52
     K19F01S  C2019 03 29.40765 12 43 53.78 -04 24 46.8                VEF157I52
     K19F01S  C2019 03 29.40910 12 43 52.30 -04 25 20.3                VEF157I52
     K19F01S  C2019 03 29.41056 12 43 50.91 -04 25 53.2          20.2 GVEF157I52
     K19F01S  C2019 03 29.41202 12 43 49.45 -04 26 25.8          19.8 GVEF157I52
     K19F01S KC2019 03 30.00344 12 34 20.34 -08 13 03.5          19.2 GVEF157K87
     K19F01S KC2019 03 30.00388 12 34 19.97 -08 13 13.7          19.6 GVEF157K87
     K19F01S KC2019 03 30.00431 12 34 19.47 -08 13 23.5          19.2 GVEF157K87
     K19F01S KC2019 03 30.03121712 33 51.78 -08 23 31.9          20.6 GVEF157L01
     K19F01S KC2019 03 30.03221012 33 50.77 -08 23 54.4          20.6 GVEF157L01
     K19F01S pC2019 03 30.03359712 33 49.38 -08 24 26.1          20.4 GVEF157L01
     K19F01S  C2019 03 30.30015 12 29 30.38 -10 05 56.5          20.3 GVEF157I52
     K19F01S  C2019 03 30.30258 12 29 27.88 -10 06 51.8          20.2 GVEF157I52
     K19F01S  C2019 03 30.30501 12 29 25.36 -10 07 47.2          20.1 GVEF157I52
     K19F01S  C2019 03 30.30744 12 29 22.84 -10 08 43.0          20.4 GVEF157I52
     K19F01S  C2019 03 31.20991 12 14 25.67 -15 47 42.5                VEF157I52
     K19F01S  C2019 03 31.21136 12 14 24.16 -15 48 15.7          20.2 GVEF157I52
     K19F01S  C2019 03 31.21282 12 14 22.60 -15 48 49.2                VEF157I52
     K19F01S  C2019 03 31.21427 12 14 21.06 -15 49 20.3          20.3 GVEF157I52
 
Observer details:
G96 Mt. Lemmon Survey.  Observer B. M. Africano.  Measurers B. M. Africano,
    E. J. Christensen, G. A. Farneth, D. C. Fuls, A. R. Gibbs, A. D. Grauer,
    H. Groeller, R. A. Kowalski, S. M. Larson, G. J. Leonard, T. A. Pruyne,
    R. L. Seaman, F. C. Shelly.  1.5-m reflector + 10K CCD.
H01 Magdalena Ridge Observatory, Socorro.  Observers W. H. Ryan, E. V. Ryan.
    Measurer W. H. Ryan.  2.4-m f/8.9 Ritchey-Chretien + CCD.
I52 Steward Observatory, Mt. Lemmon Station.  Observer H. Groeller.
    Measurers B. M. Africano, E. J. Christensen, G. A. Farneth, D. C. Fuls,
    A. R. Gibbs, A. D. Grauer, H. Groeller, R. A. Kowalski, S. M. Larson,
    G. J. Leonard, T. A. Pruyne, R. L. Seaman, F. C. Shelly.  1.0-m reflector
    + CCD.
K87 Dettelbach Vineyard Observatory.  Observer B. Haeusler.  0.30-m
    Schmidt-Cassegrain + CCD.
L01 Visnjan Observatory, Tican.  Observers K. Korlevic, G. Kervina,
    F. Valentine.  Measurer K. Korlevic.  1.0-m f/2.9 reflector + CCD.
 
Orbital elements:
2019 FS1                                                 Earth MOID = 0.0676 AU
Epoch 2019 Apr. 27.0 TT = JDT 2458600.5                 MPC
M  15.46233              (2000.0)            P               Q
n   0.67147326     Peri.  185.36575     -0.97288905     +0.22011724
a   1.2915669      Node     8.42451     -0.19006285     -0.58615495
e   0.1752468      Incl.   28.96969     -0.13176877     -0.77972481
P   1.47           H   25.8           G   0.15           U   8
Residuals in seconds of arc
190329 G96  0.1-  0.3-    190329 I52  0.2+  0.1+    190330 L01  0.0   0.5+
190329 G96  0.5+  1.3+    190329 I52  0.4-  0.1-    190330 L01  0.2+  0.6+
190329 G96  1.1-  1.1-    190329 I52  0.1-  0.3-    190330 I52  0.4-  0.3-
190329 G96  0.8+  1.3+    190329 I52  0.7-  0.7-    190330 I52  0.2-  0.0
190329 H01  0.0   0.1-    190329 I52  0.3+  0.2-    190330 I52  0.3-  0.2+
190329 H01  0.0   0.1-    190329 I52  0.2+  0.5+    190330 I52  0.4-  0.1-
190329 H01  0.1+  0.0     190330 K87 (1.5-  2.1-)   190331 I52  0.2+  1.0+
190329 H01  0.0   0.2-    190330 K87 (0.4-  2.2-)   190331 I52  0.4+  0.0
190329 I52  0.1-  0.2-    190330 K87 (1.4-  2.2-)   190331 I52  0.0   1.1-
190329 I52  0.2+  0.1+    190330 L01  0.0   0.2+    190331 I52  0.2-  0.0

Ephemeris:
2019 FS1                 a,e,i = 1.29, 0.18, 29                  q = 1.0652
Date    TT    R. A. (2000) Decl.     Delta      r     Elong.  Phase     V
2019 03 01    15 48 02.1 +49 13 54   0.2640  1.0906   105.3    61.2    25.3
...
2019 03 16    15 03 46.2 +40 59 20   0.1429  1.0733   120.1    53.3    23.7
...
2019 03 24    13 58 18.1 +23 46 10   0.08666 1.0679   143.8    33.4    22.0
...
2019 03 30    12 34 25.5 -08 09 34   0.06750 1.0658   175.3     4.4    20.5
2019 03 31    12 17 53.9 -14 28 10   0.06807 1.0656   168.5    10.8    20.8
2019 04 01    12 01 01.1 -20 29 23   0.06981 1.0654   161.3    17.5    21.1
...
2019 04 07    10 24 02.9 -44 25 28   0.09842 1.0654   128.9    46.9    22.7
...
2019 04 15    08 57 44.6 -54 08 18   0.1573  1.0680   110.4    61.7    24.1
...
2019 04 30    07 54 11.6 -57 48 59   0.2753  1.0804    98.0    67.4    25.5

A. U. Tomatic                (C) Copyright 2019 MPC           M.P.E.C. 2019-F157



More information about the Iaude mailing list